Helicity
11 14 18 22 33 43 47 52 57 58 59 58 62 66 69 70 64 53 37 23 15 9 4 3 3 10 44 69 57 98 64 51 52 59 72 88 93 97 87 93 94 102 70 75 75 66 62
-9 -7 -3 -3 2 10 13 19 24 39 57 64 64 61 56 52 58 55 49 30 14 9 10 11 14 39 68 87 91 89 68 69 79 86 85 87 119 128 90 74 90 103 86 57 52 53 88
-7 -19 -26 -24 -19 -7 -13 -14 -2 8 15 23 35 53 68 81 80 85 76 42 7 8 18 23 35 66 84 76 94 86 69 73 78 90 103 123 110 135 155 98 119 99 79 75 100 99 103
6 11 17 -0 -13 -11 -9 -6 -7 -7 -0 10 12 18 31 47 66 100 99 72 40 10 23 43 73 96 88 116 112 82 51 56 44 50 79 90 124 132 151 144 131 93 80 94 89 146 108
30 22 26 24 29 23 14 5 1 -0 -8 -5 3 12 28 42 62 83 84 77 17 29 40 71 105 114 75 81 69 73 74 87 78 78 82 89 113 140 169 213 179 134 124 115 93 85 144
36 31 29 26 27 28 23 26 31 29 24 13 19 26 40 52 63 76 98 43 37 59 56 67 102 117 84 101 110 116 122 89 102 115 137 139 155 162 205 288 186 143 176 140 104 64 185
43 40 42 45 43 43 43 41 41 41 45 40 24 43 53 77 91 89 58 -7 71 96 107 88 105 120 114 126 121 98 89 125 150 163 171 136 230 248 238 204 191 184 177 135 106 87 106
56 57 56 56 55 59 63 73 73 68 78 85 46 46 69 96 108 40 8 -46 -31 40 7 59 83 92 157 166 150 133 167 139 165 154 164 265 226 165 143 148 136 103 107 98 109 137 160
57 59 59 64 69 75 79 80 85 86 86 82 77 68 59 87 76 45 17 12 15 23 68 35 91 165 209 168 81 37 97 72 103 121 169 248 179 111 117 112 136 146 171 138 152 99 174
61 53 47 42 43 56 71 79 84 92 94 83 78 70 72 92 57 65 34 61 41 43 78 74 90 49 49 62 84 70 66 108 128 101 132 154 102 81 115 134 167 150 159 133 153 180 211
27 38 54 65 89 100 95 86 91 98 103 111 98 82 77 68 18 35 42 65 30 30 136 101 112 41 33 94 114 120 86 137 121 154 204 138 130 129 143 89 203 197 173 156 181 184 210
75 94 116 133 127 123 111 105 108 117 110 104 121 104 95 108 71 56 84 55 48 161 130 191 130 132 148 116 130 121 104 113 113 148 148 129 139 156 145 135 135 195 219 215 210 227 260
160 163 151 144 122 101 89 89 93 94 95 90 84 89 86 93 69 99 89 92 190 296 192 208 226 177 136 121 112 110 142 159 169 152 147 119 129 177 230 173 208 234 263 249 323 344 383
170 158 142 120 95 79 74 78 78 76 83 83 84 77 75 96 84 100 143 184 268 237 195 269 259 204 188 176 113 103 110 109 6 89 160 125 79 135 141 160 145 187 259 312 206 252 187
120 115 104 95 84 83 68 71 79 83 76 76 82 77 90 105 106 146 199 331 264 199 277 310 190 156 163 248 218 247 182 170 148 198 241 225 213 193 152 180 213 185 220 131 191 184 190
83 80 90 103 110 100 105 100 92 87 86 77 76 61 68 77 97 187 262 338 330 257 245 223 252 252 287 274 261 288 219 273 318 142 81 217 157 116 167 163 191 221 206 218 232 232 203
62 68 87 87 79 104 118 127 112 99 81 67 67 78 64 55 92 210 319 313 230 173 210 265 284 276 268 212 205 247 296 277 203 181 125 140 164 204 163 172 130 204 218 201 198 242 242
74 68 60 68 83 100 106 112 102 85 82 92 98 128 102 70 171 178 210 213 133 166 153 168 178 188 192 190 226 214 216 184 124 61 116 95 123 139 127 146 154 174 129 110 196 225 251
47 49 62 83 89 87 98 108 93 84 91 88 134 129 108 152 187 187 172 171 145 117 120 197 204 161 208 220 246 169 182 158 144 161 213 159 217 184 102 135 164 164 224 275 244 227 209
58 66 67 69 80 82 87 96 112 90 83 116 143 176 151 175 192 189 204 190 154 110 139 131 195 169 181 206 176 207 169 120 129 93 137 105 150 178 190 150 113 99 63 62 59 179 192
80 87 78 74 73 67 79 87 106 104 71 151 185 168 152 208 196 181 190 223 192 189 119 112 194 118 134 177 171 155 106 128 86 61 72 111 156 104 119 113 125 122 112 89 112 100 124
71 78 78 70 69 70 79 96 107 109 80 210 247 210 209 235 185 192 182 212 148 114 176 169 155 101 112 140 106 152 120 101 71 76 102 110 141 92 113 113 117 127 139 115 128 130 106
69 88 82 69 63 63 70 89 95 110 110 232 203 143 197 224 222 254 203 166 153 115 81 44 81 79 79 84 91 88 85 105 145 146 88 142 149 133 126 89 81 153 142 103 111 85 157
83 89 87 77 72 70 65 71 84 86 105 153 195 175 240 254 212 197 130 138 125 109 138 88 92 104 97 97 62 70 69 66 83 100 149 133 87 140 126 85 72 77 246 140 79 124 169
90 79 69 71 59 59 59 59 55 51 70 98 115 160 220 258 218 183 126 125 106 74 96 102 95 125 101 81 81 100 84 99 74 72 80 52 33 116 71 93 62 162 71 -19 30 76 96
83 84 68 62 38 31 32 38 40 31 29 79 93 122 128 220 212 136 145 116 107 84 106 101 135 130 113 94 90 84 99 90 80 81 103 42 27 60 126 103 85 154 237 130 51 54 137
38 33 33 30 26 31 32 49 39 20 -5 65 113 110 99 163 146 132 151 123 108 82 84 114 92 111 141 107 89 105 113 124 108 102 49 56 53 103 84 106 113 108 91 20 30 35 25
25 31 32 28 18 21 25 47 31 6 -20 51 96 132 111 169 147 144 146 151 130 138 92 77 166 176 152 88 92 86 95 113 132 77 73 78 76 116 93 63 71 46 -36 -32 4 6 17
23 21 22 27 10 21 36 36 22 -4 -5 68 129 145 165 157 159 131 132 155 144 131 110 154 274 148 105 120 140 118 138 103 117 98 156 130 121 115 112 128 151 97 58 75 31 18 26
Wind_Speed
54 54 55 56 56 56 57 57 57 58 59 60 62 64 66 68 69 70 70 69 67 64 59 56 56 56 48 40 37 27 29 31 31 31 30 30 29 28 27 32 37 35 50 49 46 47 48
44 46 50 52 54 57 58 59 60 61 62 63 64 65 68 70 71 73 74 74 68 55 48 46 45 48 41 41 34 28 32 32 31 31 31 29 30 33 35 33 40 41 47 52 52 53 43
42 41 41 40 41 46 50 53 55 58 61 63 65 69 71 74 75 77 78 76 58 41 34 31 32 35 35 24 29 28 31 33 30 29 29 31 30 34 40 37 39 51 64 63 51 50 51
49 52 55 55 52 50 50 50 52 54 57 61 64 67 71 75 79 83 81 79 74 55 38 28 28 32 37 27 27 26 24 27 27 28 30 30 29 31 35 37 42 49 54 66 56 41 49
52 53 55 57 59 60 60 60 58 59 59 62 63 68 73 77 81 83 82 80 59 45 37 31 32 33 42 27 27 24 24 30 24 26 27 28 29 33 34 39 51 45 57 64 69 39 45
55 55 57 58 60 61 62 64 66 68 68 66 67 71 76 80 83 83 84 69 41 41 36 31 33 38 32 36 31 28 26 28 31 27 30 28 26 27 34 36 50 51 50 58 65 54 55
53 54 55 57 58 61 63 65 67 69 71 69 69 72 75 79 82 81 76 55 59 49 47 41 43 41 43 33 29 28 29 31 32 31 33 27 31 29 28 27 35 42 57 69 74 67 71
56 55 55 57 59 61 62 64 66 68 70 73 71 72 76 79 78 69 62 56 50 49 68 52 41 42 41 36 45 31 22 30 29 34 29 37 31 30 38 35 35 37 47 60 78 69 69
59 59 59 59 60 63 66 67 68 68 69 71 72 73 73 78 72 55 54 56 48 50 60 61 47 46 38 32 38 36 16 31 35 38 36 39 38 38 33 36 39 39 42 46 69 74 65
63 63 63 63 63 65 66 68 71 72 72 72 72 70 71 77 50 63 50 55 52 48 71 56 41 38 33 32 35 32 23 33 37 45 39 44 43 39 36 40 45 55 46 50 59 71 87
64 65 67 67 68 67 67 67 67 70 72 72 72 72 68 59 54 57 52 59 51 46 74 46 39 33 33 30 36 35 33 36 41 43 43 43 52 48 42 39 41 53 51 53 57 61 74
67 68 69 70 70 69 65 65 67 69 69 71 72 70 65 49 48 43 53 56 45 53 64 49 40 42 43 36 39 36 38 34 39 47 43 44 52 52 50 55 48 49 53 55 56 59 77
72 72 70 69 66 65 65 65 65 66 68 69 69 66 58 48 47 50 54 47 54 50 50 53 50 47 50 49 47 44 47 48 51 65 66 63 57 53 50 59 55 50 56 73 73 66 79
73 72 70 68 64 62 62 63 65 67 69 71 71 66 46 38 38 47 44 45 55 52 51 52 58 62 57 55 55 51 55 63 51 58 74 76 87 50 43 44 55 48 49 62 86 82 84
70 69 66 64 62 60 57 58 62 66 67 68 69 51 45 45 31 31 35 50 55 52 54 66 74 74 68 52 54 59 54 63 53 46 60 73 66 47 52 48 48 55 56 56 80 84 93
66 65 63 63 60 58 58 56 59 64 68 69 64 52 46 44 36 34 40 54 53 52 64 63 73 59 70 73 77 74 64 52 57 51 55 63 101 65 56 50 51 56 55 65 61 87 96
63 63 62 61 59 60 60 59 56 59 65 66 53 54 45 39 32 38 55 56 58 49 54 57 63 67 70 73 67 71 69 70 65 71 70 74 77 85 70 64 66 66 69 65 69 71 96
61 59 61 57 57 58 59 60 58 55 61 52 51 60 40 39 47 44 52 51 43 50 50 58 55 60 71 69 69 65 65 62 64 63 75 67 78 102 93 79 77 78 83 77 85 95 92
58 57 58 57 58 58 59 60 58 51 51 51 58 56 41 37 65 60 58 61 65 63 56 53 53 49 49 61 76 63 59 52 56 59 64 65 68 98 92 70 60 67 63 69 83 89 112
57 60 57 61 59 58 58 57 56 52 46 44 56 65 52 47 51 61 65 71 71 58 57 51 57 57 62 68 56 66 66 57 61 61 61 57 66 74 99 92 92 100 105 93 85 95 107
59 57 58 61 61 61 60 58 55 53 41 40 49 60 53 66 61 62 62 63 70 68 51 51 56 56 66 72 67 69 64 62 66 70 63 56 84 82 91 95 95 104 103 102 100 106 114
62 60 60 59 59 58 58 55 53 50 44 44 59 59 53 64 63 65 62 67 72 65 59 63 67 69 59 65 67 82 71 69 76 61 62 58 82 84 98 93 97 101 99 100 101 104 109
65 62 61 61 61 59 57 56 54 51 44 48 45 50 59 65 63 66 64 64 66 61 61 53 58 66 64 63 59 60 60 62 64 71 69 66 75 82 104 92 91 97 88 86 91 87 85
69 66 64 64 63 62 60 58 55 50 45 45 46 50 60 77 64 63 61 63 69 63 73 66 62 65 55 48 59 60 60 60 57 58 50 62 65 68 87 86 92 68 57 57 63 61 69
74 72 71 71 69 65 62 60 59 54 49 48 43 48 56 74 65 66 65 67 62 63 66 61 55 49 42 49 60 68 69 62 48 44 40 33 45 55 64 77 80 64 67 67 67 64 68
79 79 80 80 76 70 66 61 57 53 48 46 42 35 45 67 69 56 60 57 67 66 63 52 44 42 40 44 50 62 66 60 57 48 39 38 39 52 64 72 71 55 72 66 56 69 76
80 80 80 79 75 71 66 60 56 53 50 45 44 32 42 58 52 53 59 58 48 52 57 46 39 41 40 40 49 55 57 43 49 45 50 50 56 55 58 57 45 62 68 59 52 62 82
81 79 74 73 72 66 63 60 58 55 57 50 46 37 38 50 51 44 43 49 52 47 52 46 47 42 36 40 39 40 43 39 45 49 55 62 54 51 50 50 54 65 59 58 65 71 69
79 75 71 68 66 64 57 56 56 52 60 53 42 37 33 44 41 39 42 46 45 44 51 41 43 33 28 32 38 42 45 53 56 64 48 47 45 49 51 48 47 57 58 64 64 65 60
Wind_Direction
23 19 13 11 1 354 352 347 344 341 339 337 336 335 332 329 328 328 328 329 330 334 339 340 337 335 342 347 348 5 0 357 352 347 338 337 334 335 329 320 314 307 301 304 307 311 308
50 44 33 28 21 14 9 2 356 351 343 338 336 334 332 331 327 323 319 320 330 342 345 346 347 344 345 339 354 2 354 349 345 340 335 333 329 329 325 319 307 307 305 301 301 303 310
42 43 42 42 38 29 22 16 10 4 357 352 346 340 335 329 325 318 314 317 342 349 349 352 357 357 348 343 354 354 348 343 344 342 335 332 329 321 322 323 316 303 295 294 300 301 300
23 18 13 14 17 17 17 15 11 7 2 356 351 347 342 338 334 327 323 320 326 339 346 353 357 355 339 358 360 354 0 354 354 346 339 334 331 321 316 320 318 310 302 294 301 301 298
17 15 11 8 5 2 1 359 358 355 354 350 349 344 340 336 333 330 328 326 340 351 358 1 354 348 336 6 356 360 1 351 358 354 350 343 330 318 318 311 308 309 302 295 295 295 299
8 7 4 2 360 359 357 354 351 348 343 343 342 339 336 332 331 330 329 339 354 353 359 0 349 341 343 341 348 352 355 346 340 342 338 334 333 321 313 306 301 304 302 301 295 298 291
7 6 4 2 360 356 354 351 348 345 343 343 342 339 338 335 333 334 338 345 337 336 339 330 328 324 330 339 342 335 338 334 331 326 318 322 314 297 290 286 299 302 299 297 294 296 291
358 358 358 356 354 352 350 348 346 343 341 339 340 339 336 334 334 340 348 345 344 337 323 322 312 308 309 321 317 324 336 326 322 312 316 316 289 295 308 303 293 291 293 294 297 297 291
352 353 353 353 351 349 346 343 341 339 338 337 335 334 335 332 332 346 346 346 348 341 327 325 329 326 326 326 320 323 331 328 320 314 308 300 312 326 308 301 297 292 293 294 300 301 296
346 347 347 347 347 346 344 342 337 335 334 333 333 333 333 331 339 336 341 344 344 343 320 330 340 344 347 341 333 339 340 331 326 320 311 307 308 299 298 301 304 300 302 302 304 303 295
342 344 344 344 343 342 342 341 339 336 334 332 330 330 331 336 332 331 333 336 340 342 315 333 341 348 348 341 339 336 333 325 317 318 319 315 314 312 302 295 303 302 307 305 306 303 303
338 338 339 340 341 342 342 341 339 337 336 335 332 329 329 333 330 331 332 333 336 324 312 323 335 333 332 334 330 333 333 330 326 318 310 298 308 309 307 310 309 311 309 309 308 306 296
335 335 336 338 340 342 341 340 340 339 338 336 333 331 331 330 326 329 328 330 318 309 325 319 322 326 323 321 321 320 320 319 316 313 309 312 305 301 298 301 304 300 302 300 300 299 294
334 334 335 337 338 340 340 340 341 340 338 335 332 330 334 329 327 329 327 321 306 314 309 322 320 316 313 319 316 317 314 312 311 306 307 307 307 308 307 297 304 296 289 293 296 296 300
335 336 337 337 337 337 339 340 341 340 339 338 335 339 336 336 342 337 320 305 308 312 315 314 314 310 311 317 315 316 313 314 318 321 306 309 306 320 315 307 303 303 292 294 293 295 295
337 338 339 339 339 338 336 336 337 337 337 335 335 336 334 336 338 328 309 304 309 314 314 314 308 309 306 309 310 312 311 318 316 323 323 311 302 309 313 311 302 294 305 297 292 291 289
337 338 337 339 339 339 338 335 335 336 336 334 338 332 336 343 342 321 304 307 312 314 318 313 308 304 306 308 307 307 303 308 312 310 313 311 301 300 304 300 297 296 293 293 294 287 286
337 337 339 337 338 338 337 336 335 337 338 342 335 323 343 344 323 319 308 310 320 317 318 312 310 306 304 307 307 307 305 305 315 314 307 308 302 296 296 296 294 291 288 286 281 286 282
332 335 336 336 335 336 334 334 334 336 340 337 326 323 335 333 311 310 311 308 308 307 308 314 310 312 314 308 307 308 309 317 320 319 315 314 304 301 302 306 309 294 294 298 293 290 281
327 329 330 331 331 331 331 330 332 332 335 336 325 318 324 324 319 313 312 310 308 315 310 310 308 311 308 305 303 305 307 313 315 315 316 313 302 297 293 295 299 295 291 293 291 287 287
323 323 324 325 326 326 326 326 326 328 328 330 321 315 318 312 313 312 312 312 311 311 315 316 313 309 308 306 306 303 306 310 311 311 311 306 299 299 296 296 296 293 291 290 289 286 283
319 319 320 320 322 323 324 324 324 322 323 313 311 313 319 311 312 312 312 312 311 308 308 308 306 309 308 304 306 305 309 310 308 313 309 309 302 303 298 300 298 294 291 290 288 288 287
315 315 316 317 318 318 319 319 318 317 317 309 311 310 309 308 309 307 307 308 309 313 312 312 314 313 308 308 312 312 311 309 306 305 305 304 305 304 299 305 305 297 299 296 293 295 295
311 311 311 312 312 313 313 314 314 311 306 304 306 309 306 301 303 305 309 310 309 310 308 311 311 309 311 319 316 313 310 309 307 303 302 303 304 306 304 309 301 315 323 317 310 312 310
306 306 307 307 306 307 307 308 310 308 305 297 300 300 299 299 300 301 304 308 311 311 309 311 313 315 319 321 316 314 315 316 322 325 321 311 314 313 312 309 308 315 318 316 315 311 321
304 302 302 302 301 301 302 304 306 306 302 296 291 290 299 298 298 301 306 311 310 311 310 310 319 324 323 318 316 311 312 316 315 323 331 329 321 313 316 312 308 323 320 321 316 305 319
304 303 303 303 300 299 299 301 304 303 301 295 289 279 291 296 300 302 304 308 316 315 311 315 319 321 323 319 313 311 311 317 315 319 322 323 320 313 314 314 320 320 318 328 322 315 318
305 305 304 304 304 302 299 300 303 301 301 294 288 277 278 294 298 305 307 306 309 310 308 315 314 313 316 314 319 322 321 326 322 322 320 317 317 317 320 318 312 319 319 324 318 318 322
305 306 306 306 306 305 300 300 303 301 300 297 282 281 277 290 303 313 312 311 308 308 308 305 301 314 318 319 319 323 319 318 315 312 323 319 321 317 318 319 323 332 325 324 322 318 324